TimeEST,TemperatureF,Dew PointF,Humidity,Sea Level PressureIn,VisibilityMPH,Wind Direction,Wind SpeedMPH,Gust SpeedMPH,PrecipitationIn,Events,Conditions,WindDirDegrees,DateUTC
12:15 AM,33.8,32.0,93,29.94,4.0,East,12.7,19.6,N/A,Rain,Light Rain,100,2012-12-26 05:15:00
12:35 AM,33.8,32.0,93,29.93,5.0,East,13.8,-,N/A,,Heavy Drizzle,100,2012-12-26 05:35:00
12:55 AM,33.8,33.8,100,29.90,5.0,East,13.8,18.4,N/A,Rain,Light Rain,100,2012-12-26 05:55:00
1:15 AM,33.8,33.8,100,29.86,5.0,East,16.1,23.0,N/A,Rain,Light Rain,100,2012-12-26 06:15:00
1:35 AM,33.8,33.8,100,29.85,5.0,East,12.7,24.2,N/A,Rain,Light Rain,90,2012-12-26 06:35:00
1:55 AM,33.8,33.8,100,29.83,4.0,East,15.0,20.7,N/A,Rain,Rain,90,2012-12-26 06:55:00
2:15 AM,33.8,33.8,100,29.82,5.0,East,15.0,24.2,N/A,Rain,Light Rain,90,2012-12-26 07:15:00
2:35 AM,33.8,33.8,100,29.80,5.0,East,19.6,24.2,N/A,Rain,Rain,90,2012-12-26 07:35:00
2:55 AM,33.8,33.8,100,29.80,5.0,East,20.7,27.6,N/A,,Drizzle,90,2012-12-26 07:55:00
3:15 AM,33.8,33.8,100,29.76,4.0,East,21.9,26.5,N/A,Rain,Light Rain,90,2012-12-26 08:15:00
3:35 AM,33.8,33.8,100,29.72,5.0,East,20.7,27.6,N/A,Rain,Light Rain,90,2012-12-26 08:35:00
3:55 AM,33.8,33.8,100,29.68,10.0,East,20.7,27.6,N/A,,Light Drizzle,90,2012-12-26 08:55:00
4:15 AM,33.8,33.8,100,29.67,10.0,East,21.9,29.9,N/A,,Overcast,90,2012-12-26 09:15:00
4:35 AM,33.8,33.8,100,29.66,10.0,East,16.1,26.5,N/A,,Overcast,90,2012-12-26 09:35:00
4:55 AM,33.8,33.8,100,29.63,7.0,East,18.4,25.3,N/A,,Drizzle,90,2012-12-26 09:55:00
5:15 AM,33.8,33.8,100,29.59,5.0,East,21.9,26.5,N/A,Rain,Light Rain,90,2012-12-26 10:15:00
5:35 AM,35.6,33.8,93,29.57,3.0,East,17.3,35.7,N/A,Rain,Rain,100,2012-12-26 10:35:00
5:55 AM,35.6,33.8,93,29.56,5.0,East,18.4,27.6,N/A,Rain,Rain,90,2012-12-26 10:55:00
6:15 AM,35.6,35.6,100,29.55,10.0,East,18.4,23.0,N/A,,Overcast,90,2012-12-26 11:15:00
6:35 AM,35.6,35.6,100,29.53,10.0,East,20.7,29.9,N/A,,Overcast,100,2012-12-26 11:35:00
6:55 AM,35.6,35.6,100,29.53,10.0,East,17.3,25.3,N/A,,Overcast,100,2012-12-26 11:55:00
7:15 AM,37.4,35.6,93,29.52,10.0,East,17.3,21.9,N/A,,Overcast,100,2012-12-26 12:15:00
7:35 AM,37.4,35.6,93,29.50,10.0,East,17.3,24.2,N/A,,Overcast,100,2012-12-26 12:35:00
7:55 AM,37.4,37.4,100,29.48,5.0,ESE,21.9,27.6,N/A,Rain,Rain,110,2012-12-26 12:55:00
8:15 AM,37.4,37.4,100,29.48,10.0,ESE,17.3,26.5,N/A,,Overcast,110,2012-12-26 13:15:00
8:35 AM,37.4,37.4,100,29.49,10.0,East,12.7,19.6,N/A,,Overcast,100,2012-12-26 13:35:00
8:55 AM,37.4,37.4,100,29.49,7.0,ESE,12.7,23.0,N/A,,Drizzle,110,2012-12-26 13:55:00
9:15 AM,37.4,37.4,100,29.49,5.0,East,12.7,18.4,N/A,Rain,Light Rain,100,2012-12-26 14:15:00
9:35 AM,39.2,37.4,93,29.48,10.0,East,16.1,25.3,N/A,,Overcast,100,2012-12-26 14:35:00
9:55 AM,39.2,37.4,93,29.48,7.0,East,12.7,17.3,N/A,Rain,Rain,100,2012-12-26 14:55:00
10:15 AM,41.0,39.2,93,29.48,10.0,East,10.4,20.7,N/A,,Overcast,100,2012-12-26 15:15:00
10:35 AM,41.0,39.2,93,29.48,10.0,ESE,12.7,17.3,N/A,,Drizzle,110,2012-12-26 15:35:00
10:55 AM,41.0,41.0,100,29.48,7.0,East,10.4,16.1,N/A,Rain,Light Rain,100,2012-12-26 15:55:00
11:15 AM,41.0,41.0,100,29.50,5.0,South,4.6,-,N/A,,Heavy Drizzle,170,2012-12-26 16:15:00
11:35 AM,42.8,41.0,93,29.49,5.0,Calm,Calm,-,N/A,,Drizzle,0,2012-12-26 16:35:00
11:55 AM,42.8,41.0,93,29.48,7.0,SE,5.8,-,N/A,Rain,Light Rain,140,2012-12-26 16:55:00
12:15 PM,42.8,42.8,100,29.46,10.0,SE,6.9,-,N/A,,Light Drizzle,130,2012-12-26 17:15:00
12:35 PM,44.6,42.8,93,29.46,10.0,SE,5.8,-,N/A,,Drizzle,140,2012-12-26 17:35:00
12:55 PM,42.8,42.8,100,29.46,7.0,SE,6.9,-,N/A,Rain,Light Rain,140,2012-12-26 17:55:00
1:15 PM,42.8,42.8,100,29.46,5.0,SSE,4.6,-,N/A,Rain,Rain,150,2012-12-26 18:15:00
1:35 PM,42.8,42.8,100,29.46,10.0,SE,5.8,-,N/A,Rain,Light Rain,140,2012-12-26 18:35:00
1:55 PM,44.6,42.8,93,29.45,10.0,SE,5.8,-,N/A,,Overcast,130,2012-12-26 18:55:00
2:15 PM,44.6,42.8,93,29.46,10.0,South,11.5,18.4,N/A,,Overcast,180,2012-12-26 19:15:00
2:35 PM,44.6,41.0,87,29.46,10.0,WSW,8.1,-,N/A,,Overcast,240,2012-12-26 19:35:00
2:55 PM,44.6,41.0,87,29.47,10.0,WSW,8.1,-,N/A,,Drizzle,240,2012-12-26 19:55:00
3:15 PM,42.8,42.8,100,29.48,5.0,West,9.2,-,N/A,,Drizzle,280,2012-12-26 20:15:00
3:35 PM,42.8,41.0,93,29.50,3.0,West,11.5,20.7,N/A,Rain,Light Rain,280,2012-12-26 20:35:00
3:55 PM,42.8,41.0,93,29.51,3.0,West,12.7,17.3,N/A,Rain,Light Rain,260,2012-12-26 20:55:00
4:15 PM,41.0,39.2,93,29.52,4.0,WSW,8.1,16.1,N/A,Rain,Light Rain,250,2012-12-26 21:15:00
4:35 PM,39.2,39.2,100,29.54,4.0,NW,12.7,-,N/A,,Drizzle,310,2012-12-26 21:35:00
4:55 PM,37.4,35.6,93,29.56,4.0,NW,16.1,21.9,N/A,,Light Drizzle,310,2012-12-26 21:55:00
5:15 PM,35.6,33.8,93,29.58,4.0,NW,10.4,19.6,N/A,,Drizzle,320,2012-12-26 22:15:00
5:35 PM,33.8,32.0,93,29.61,7.0,NNW,11.5,26.5,N/A,Rain,Rain,330,2012-12-26 22:35:00
5:55 PM,32.0,32.0,100,29.63,3.0,NW,17.3,26.5,N/A,Snow,Light Snow,320,2012-12-26 22:55:00
6:15 PM,32.0,32.0,100,29.65,5.0,NW,16.1,26.5,N/A,,Overcast,310,2012-12-26 23:15:00
6:35 PM,32.0,32.0,100,29.68,7.0,NNW,13.8,24.2,N/A,,Overcast,330,2012-12-26 23:35:00
6:55 PM,32.0,30.2,93,29.69,5.0,NW,11.5,19.6,N/A,Snow,Light Snow,320,2012-12-26 23:55:00
7:15 PM,32.0,30.2,93,29.72,10.0,NW,13.8,21.9,N/A,,Overcast,310,2012-12-27 00:15:00
7:35 PM,32.0,30.2,93,29.73,10.0,NNW,15.0,21.9,N/A,Snow,Light Snow,330,2012-12-27 00:35:00
8:15 PM,32.0,30.2,93,29.77,10.0,NW,13.8,20.7,N/A,,Overcast,320,2012-12-27 01:15:00
8:35 PM,32.0,30.2,93,29.79,10.0,NW,11.5,21.9,N/A,,Overcast,320,2012-12-27 01:35:00
8:55 PM,32.0,30.2,93,29.80,10.0,NW,11.5,25.3,N/A,,Overcast,320,2012-12-27 01:55:00
9:15 PM,32.0,30.2,93,29.81,10.0,NNW,12.7,26.5,N/A,,Overcast,340,2012-12-27 02:15:00
9:35 PM,32.0,30.2,93,29.83,10.0,NW,10.4,20.7,N/A,,Overcast,310,2012-12-27 02:35:00
9:55 PM,32.0,30.2,93,29.85,10.0,NNW,16.1,23.0,N/A,,Overcast,330,2012-12-27 02:55:00
10:15 PM,32.0,28.4,87,29.86,10.0,NNW,11.5,23.0,N/A,,Overcast,330,2012-12-27 03:15:00
10:35 PM,32.0,30.2,93,29.87,10.0,NW,17.3,26.5,N/A,,Overcast,320,2012-12-27 03:35:00
10:55 PM,32.0,30.2,93,29.89,10.0,NW,17.3,24.2,N/A,,Overcast,320,2012-12-27 03:55:00
11:15 PM,32.0,28.4,87,29.90,10.0,NW,13.8,21.9,N/A,,Overcast,320,2012-12-27 04:15:00
11:35 PM,30.2,28.4,93,29.91,10.0,NNW,12.7,21.9,N/A,,Overcast,330,2012-12-27 04:35:00
11:55 PM,30.2,28.4,93,29.92,10.0,NNW,11.5,19.6,N/A,,Overcast,330,2012-12-27 04:55:00